Regional Weather Roundup
Issued by NWS San Angelo, TX

Home | Current Version | Previous Version | Text Only | Print | Product List | Glossary On
Versions: 1 2 3 4 5 6 7 8 9 10 11 12 13 14 15 16 17 18 19 20 21 22 23 24 25 26 27 28 29 30 31 32 33 34 35 36 37 38 39 40 41 42 43 44 45 46 47 48 49 50
000
ASUS44 KSJT 130610
RWRSJT
WEST CENTRAL TEXAS REGIONAL WEATHER ROUNDUP
NATIONAL WEATHER SERVICE SAN ANGELO TX
100 AM CDT SUN JUL 13 2014

NOTE: "FAIR" INDICATES FEW OR NO CLOUDS BELOW 12,000 FEET WITH NO
SIGNIFICANT WEATHER AND/OR OBSTRUCTIONS TO VISIBILITY.

TXZ049-054-064>066-071>073-076>078-098-099-113-114-127-128-139-140-
154-155-168>170-130700
...LOCATIONS ACROSS WEST CENTRAL TEXAS...

CITY           SKY/WX    TMP DP  RH WIND       PRES   REMARKS
SAN ANGELO     CLEAR     75  57  53 S3        30.12R
ABILENE        CLEAR     79  50  36 SE10      30.11R
DYESS AFB      NOT AVBL
JUNCTION       CLEAR     80  61  52 S8        30.12S
SWEETWATER     CLEAR     77  50  38 S8        30.17R
BROWNWOOD      PTCLDY    79  55  44 SE7       30.11S
COLEMAN        CLEAR     79  50  36 S6        30.12R
SONORA         NOT AVBL
OZONA          FAIR      70  59  68 CALM      30.16S
BRADY          CLEAR     79  59  50 SE7       30.12S
$$

TEXAS PANHANDLE/OKLAHOMA PANHANDLE

CITY           SKY/WX    TMP DP  RH WIND       PRES   REMARKS
AMARILLO       CLEAR     75  57  53 S8        30.19R
BORGER         CLEAR     80  59  48 S7        30.15R
CANADIAN       CLEAR     75  64  67 SW5       30.10R
DALHART        PTCLDY    71  58  63 S6        30.22R
DUMAS          CLEAR     72  59  64 CALM      30.19R
GUYMON         NOT AVBL
HEREFORD       CLEAR     70  62  77 SE8       30.21R
PAMPA          CLEAR     70  58  66 S8        30.18R
PERRYTON       PTCLDY    77  58  52 SW7       30.14R
$$

SOUTHERN PANHANDLE/SOUTH PLAINS/ROLLING PLAINS

CITY           SKY/WX    TMP DP  RH WIND       PRES   REMARKS
LUBBOCK        CLEAR     77  54  44 S12       30.17R
SNYDER         CLEAR     76  55  47 S6        30.14S
CHILDRESS      CLEAR     76  47  35 S9        30.09R
SEMINOLE       CLEAR     76  56  50 S9        30.19R
$$

PERMIAN BASIN

CITY           SKY/WX    TMP DP  RH WIND       PRES   REMARKS
MIDLAND        CLEAR     77  60  55 SE7       30.15R
ODESSA         CLEAR     77  59  53 SE10      30.16R
WINK           CLEAR     80  60  50 SE13      30.11R
$$

FAR WEST/SOUTHWEST MOUNTAINS/TRANS PECOS

CITY           SKY/WX    TMP DP  RH WIND       PRES   REMARKS
ALPINE         CLEAR     73  55  53 CALM      30.27S
DRYDEN           N/A     83  64  52 E8        30.09F
EL PASO        CLOUDY    76  60  57 S8        30.15R
FORT STOCKTON  CLEAR     77  59  53 SE18G24   30.12S
GUADALUPE PASS PTCLDY    69  55  60 E14         N/A
MARFA          CLEAR     68  55  64 NE3       30.26S
PECOS          CLEAR     71  64  78 E7        30.11R
$$

DALLAS/FORT WORTH METROPLEX

CITY           SKY/WX    TMP DP  RH WIND       PRES   REMARKS
DFW AIRPORT    CLEAR     83  66  56 S9        30.07S
FTW MEACHAM    CLEAR     81  64  56 SE6       30.07S
DAL-EXECUTIVE  CLEAR     83  66  56 S3        30.08R
GRAND PRAIRIE  CLEAR     82  66  57 CALM      30.09S
ADDISON        CLEAR     86  64  48 S8        30.09S
MESQUITE       CLEAR     76  69  79 SE5       30.07F
LANCASTER      CLEAR     73  65  78 CALM      30.08F
$$

NORTH CENTRAL TEXAS

CITY           SKY/WX    TMP DP  RH WIND       PRES   REMARKS
SHRMAN/DENISON CLEAR     82  65  56 S7        30.09S
GAINESVILLE    CLEAR     78  61  57 CALM      30.10S
BRIDGEPORT     CLEAR     80  60  51 S9        30.10R
DENTON         CLEAR     78  64  61 S5        30.07S
WAXAHACHIE     CLEAR     77  65  66 CALM      30.10S
GRANBURY       CLEAR     79  65  61 SE5       30.09F
$$

WESTERN NORTH TEXAS

CITY           SKY/WX    TMP DP  RH WIND       PRES   REMARKS
WICHITA FALLS  CLEAR     81  59  47 S16       30.05S
VERNON         CLEAR     81  50  33 S8        30.07R
BRECKENRIDGE   CLEAR     83  55  37 S10       30.08S
COMANCHE       CLEAR     74  56  54 S5        30.11S
$$

CENTRAL AND SOUTH CENTRAL TEXAS

CITY           SKY/WX    TMP DP  RH WIND       PRES   REMARKS
AUSTIN/BERGSTM CLEAR     79  70  74 S7        30.08F
WACO           CLEAR     82  67  60 S7        30.08S
HILLSBORO      CLEAR     81  65  59 SE7       30.09S
TEMPLE         CLEAR     81  63  54 S8        30.10R
KILLEEN-GRAY   NOT AVBL
FORT HOOD      CLEAR     82  66  58 SE5       30.10R
GEORGETOWN     CLEAR     82  68  61 S10       30.10S
LAGO VISTA     FAIR      81  67  61 S5        30.12S
SAN MARCOS     CLEAR     79  66  65 S7        30.11S
NEW BRAUNFELS  CLEAR     76  71  85 S8        30.09S
RANDOLPH AFB   NOT AVBL
SAN ANTONIO    PTCLDY    81  71  71 S10       30.10S
STINSON        CLEAR     78  70  76 SE6       30.08S
PLEASANTON     NOT AVBL
LA GRANGE      CLEAR     79  73  83 S5        30.06F
GIDDINGS       CLEAR     80  70  71 CALM      30.12S
$$

EAST TEXAS

CITY           SKY/WX    TMP DP  RH WIND       PRES   REMARKS
PARIS          CLEAR     79  64  61 E5        30.09R
CLARKSVILLE    MOCLDY    79  69  72 CALM      30.08S
TYLER          CLEAR     80  72  76 CALM      30.08S
LONGVIEW       CLEAR     78  74  87 S3        30.06F
PALESTINE      CLEAR     75  69  81 CALM      30.10F
NACOGDOCHES    CLEAR     79  73  83 SE7       30.09S
$$

TEXAS HILL COUNTRY AND EDWARDS PLATEAU

CITY           SKY/WX    TMP DP  RH WIND       PRES   REMARKS
LLANO          CLEAR     77  61  57 CALM      30.13S
HORSESHOE BAY  FAIR      80  62  54 S6        30.10R
KERRVILLE      CLEAR     79  69  71 SE6       30.13S
FREDERICKSBRG  CLEAR     78  65  65 S5        30.13S
ROCKSPRINGS    CLEAR     79  64  61 SE8       30.17S
HONDO          CLEAR     80  67  64 S12       30.11S
UVALDE         CLEAR     81  68  65 SE9       30.10R
DEL RIO        PTCLDY    85  65  51 E13       30.05R
$$

SOUTHEAST TEXAS

CITY           SKY/WX    TMP DP  RH WIND       PRES   REMARKS
COLLEGE STN    CLEAR     81  71  71 S6        30.08S
CALDWELL       CLEAR     79  72  78 CALM      30.11F
CROCKETT       CLEAR     79  75  89 CALM      30.10F
BRENHAM        CLEAR     81  72  75 S6        30.09S
HUNTSVILLE     CLEAR     81  71  71 S7        30.09S
CONROE         PTCLDY    76  73  91 CALM      30.10R
HOUSTON BUSH   MOCLDY    81  73  76 SW3       30.07F
HOUSTON HOBBY  PTCLDY    79  73  82 SW3       30.07F
PERLAND        PTCLDY    80  73  79 CALM      30.09F
WHARTON        CLEAR     74  72  92 CALM      30.10R
$$

THE UPPER TEXAS COAST

CITY           SKY/WX    TMP DP  RH WIND       PRES   REMARKS
ORANGE         PTCLDY    73  73 100 CALM      30.10R FOG
PORT ARTHUR    CLOUDY    76  73  91 CALM      30.07S
GALVESTON      CLEAR     82  76  81 CALM      30.08F
ANGLETON       PTCLDY    75  73  93 CALM      30.08S
BAY CITY       CLEAR     77  77 100 CALM      30.08S
$$

TEXAS COASTAL BEND, RIO GRANDE PLAINS DEEP SOUTH TEXAS

CITY           SKY/WX    TMP DP  RH WIND       PRES   REMARKS
VICTORIA       CLEAR     77  74  90 SE6       30.09R
BEEVILLE       FAIR      75  75 100 CALM      30.08S
ROCKPORT       CLEAR     82  74  76 SE9       30.07R
PORT ARANSAS   MOCLDY    82  76  84 SE10      30.07R
PORT LAVACA    NOT AVBL
CORPUS CHRISTI PTCLDY    77  74  90 S5        30.07R
KINGSVILLE NAS CLEAR     78  77  96 S5        30.06S
COTULLA        CLEAR     82  70  66 SE10      30.08R
LAREDO         CLEAR     83  70  64 SE13      30.09S
BROWNSVILLE    CLEAR     78  76  93 SE3       30.06F
PORT ISABEL    CLEAR     81  75  82 SE6       30.06S
HEBBRONVILLE   CLEAR     78  71  80 SE7       30.10S
MCALLEN        CLEAR     77  74  90 SE6       30.08R
WESLACO        CLEAR     77  73  86 CALM      30.07S
FALFURRIAS     CLEAR     64  62  93 SE3       30.06F
EDINBURG       CLEAR     78  73  87 SE3       30.07F
$$



USA.gov is the U.S. government's official web portal to all federal, state and local government web resources and services.